contact:dominique.lefevre@mio.osupytheas.fr, maurice.libes@osupytheas.fr, didier.mallarino@osupytheas.fr
Project:EMSO http://www.emso-fr.org/EMSO-France
Depth: 2436.0 m
Title:EMSO Ligure Ouest : Data MII capteur CSTAR
DateTime,Latitude,Longitude,Instrument_Serial,Reference_Counts,Signal_Counts,Corrected_Signal_raw_counts,Calculated_Beam_c_inverse_meters,Internal_thermistor_counts
DateTime,Latitude,Longitude,Instrument_Serial,Reference_Counts,Signal_Counts,Corrected_Signal_raw_counts,Calculated_Beam_c_inverse_meters,Internal_thermistor_counts
2019-07-22T00:00:02,42.805,6.029,CST-1368DR,8582,11990,15440,0.045,550
2019-07-22T00:03:03,42.805,6.029,CST-1368DR,8582,12006,15461,0.040,551
2019-07-22T00:06:05,42.805,6.029,CST-1368DR,8582,12007,15462,0.040,551
2019-07-22T00:09:07,42.805,6.029,CST-1368DR,8582,12006,15460,0.040,551
2019-07-22T00:12:08,42.805,6.029,CST-1368DR,8582,12006,15461,0.040,551
2019-07-22T00:15:10,42.805,6.029,CST-1368DR,8582,12005,15460,0.040,551
2019-07-22T00:18:12,42.805,6.029,CST-1368DR,8582,12008,15463,0.039,551
2019-07-22T00:21:13,42.805,6.029,CST-1368DR,8582,12007,15462,0.040,550
2019-07-22T00:24:15,42.805,6.029,CST-1368DR,8582,12005,15459,0.040,551
2019-07-22T00:27:17,42.805,6.029,CST-1368DR,8582,12006,15461,0.040,551
2019-07-22T00:30:19,42.805,6.029,CST-1368DR,8582,12007,15462,0.040,551
2019-07-22T00:33:20,42.805,6.029,CST-1368DR,8582,12008,15464,0.039,551
2019-07-22T00:36:22,42.805,6.029,CST-1368DR,8582,12007,15462,0.040,551
2019-07-22T00:39:23,42.805,6.029,CST-1368DR,8582,12008,15463,0.039,551
2019-07-22T00:42:25,42.805,6.029,CST-1368DR,8582,12006,15460,0.040,550
2019-07-22T00:45:27,42.805,6.029,CST-1368DR,8582,12006,15461,0.040,551
2019-07-22T00:48:28,42.805,6.029,CST-1368DR,8582,12007,15462,0.040,551
2019-07-22T00:51:30,42.805,6.029,CST-1368DR,8582,12006,15460,0.040,551
2019-07-22T00:54:32,42.805,6.029,CST-1368DR,8582,12007,15462,0.040,551
2019-07-22T00:57:33,42.805,6.029,CST-1368DR,8582,12000,15453,0.042,551
2019-07-22T01:00:35,42.805,6.029,CST-1368DR,8582,12007,15462,0.040,551
2019-07-22T01:03:37,42.805,6.029,CST-1368DR,8582,12006,15461,0.040,551
2019-07-22T01:06:38,42.805,6.029,CST-1368DR,8582,12007,15463,0.039,551
2019-07-22T01:09:40,42.805,6.029,CST-1368DR,8582,12007,15463,0.039,551
2019-07-22T01:12:41,42.805,6.029,CST-1368DR,8582,12005,15460,0.040,551
2019-07-22T01:15:43,42.805,6.029,CST-1368DR,8582,12005,15459,0.040,551
2019-07-22T01:18:45,42.805,6.029,CST-1368DR,8582,12008,15463,0.039,551
2019-07-22T01:21:46,42.805,6.029,CST-1368DR,8582,12005,15460,0.040,551
2019-07-22T01:24:48,42.805,6.029,CST-1368DR,8582,12007,15462,0.040,551
2019-07-22T01:27:50,42.805,6.029,CST-1368DR,8582,12003,15457,0.041,551
2019-07-22T01:30:52,42.805,6.029,CST-1368DR,8582,12005,15460,0.040,551
2019-07-22T01:33:54,42.805,6.029,CST-1368DR,8582,12005,15460,0.040,551
2019-07-22T01:36:55,42.805,6.029,CST-1368DR,8582,12005,15460,0.040,551
2019-07-22T01:39:57,42.805,6.029,CST-1368DR,8582,12005,15459,0.040,551
2019-07-22T01:42:59,42.805,6.029,CST-1368DR,8582,12006,15461,0.040,551
2019-07-22T01:46:00,42.805,6.029,CST-1368DR,8582,12005,15459,0.040,550
2019-07-22T01:49:02,42.805,6.029,CST-1368DR,8581,12005,15461,0.040,551
2019-07-22T01:52:04,42.805,6.029,CST-1368DR,8582,12006,15461,0.040,551
2019-07-22T01:55:05,42.805,6.029,CST-1368DR,8581,12006,15462,0.040,551
2019-07-22T01:58:07,42.805,6.029,CST-1368DR,8581,12005,15461,0.040,551
2019-07-22T02:01:09,42.805,6.029,CST-1368DR,8581,12006,15462,0.040,551
2019-07-22T02:04:10,42.805,6.029,CST-1368DR,8581,12007,15464,0.039,551
2019-07-22T02:07:12,42.805,6.029,CST-1368DR,8581,12005,15461,0.040,551
2019-07-22T02:10:14,42.805,6.029,CST-1368DR,8581,12005,15461,0.040,551
2019-07-22T02:13:15,42.805,6.029,CST-1368DR,8581,12006,15462,0.040,551
2019-07-22T02:16:17,42.805,6.029,CST-1368DR,8581,12000,15455,0.041,551
2019-07-22T02:19:18,42.805,6.029,CST-1368DR,8581,12005,15461,0.040,551
2019-07-22T02:22:20,42.805,6.029,CST-1368DR,8581,12005,15462,0.040,551
2019-07-22T02:25:22,42.805,6.029,CST-1368DR,8581,12004,15460,0.040,551
2019-07-22T02:28:23,42.805,6.029,CST-1368DR,8581,12006,15463,0.039,551
2019-07-22T02:31:25,42.805,6.029,CST-1368DR,8581,12002,15458,0.041,550
2019-07-22T02:34:27,42.805,6.029,CST-1368DR,8581,12004,15460,0.040,551
2019-07-22T02:37:28,42.805,6.029,CST-1368DR,8581,12005,15461,0.040,551
2019-07-22T02:40:30,42.805,6.029,CST-1368DR,8581,12005,15462,0.040,551
2019-07-22T02:43:31,42.805,6.029,CST-1368DR,8581,12004,15460,0.040,551
2019-07-22T02:46:33,42.805,6.029,CST-1368DR,8581,12003,15459,0.040,551
2019-07-22T02:49:35,42.805,6.029,CST-1368DR,8581,12003,15459,0.040,551
2019-07-22T02:52:36,42.805,6.029,CST-1368DR,8581,12005,15461,0.040,551
2019-07-22T02:55:38,42.805,6.029,CST-1368DR,8581,12005,15461,0.040,551
2019-07-22T02:58:40,42.805,6.029,CST-1368DR,8581,12004,15460,0.040,551
2019-07-22T03:01:41,42.805,6.029,CST-1368DR,8581,12004,15460,0.040,551
2019-07-22T03:04:43,42.805,6.029,CST-1368DR,8581,12003,15459,0.040,551
2019-07-22T03:07:45,42.805,6.029,CST-1368DR,8581,12005,15461,0.040,551
2019-07-22T03:10:47,42.805,6.029,CST-1368DR,8581,12004,15460,0.040,551
2019-07-22T03:13:48,42.805,6.029,CST-1368DR,8581,12005,15461,0.040,551
2019-07-22T03:16:50,42.805,6.029,CST-1368DR,8581,12004,15460,0.040,551
2019-07-22T03:19:52,42.805,6.029,CST-1368DR,8581,12004,15460,0.040,551
2019-07-22T03:22:54,42.805,6.029,CST-1368DR,8580,11996,15452,0.042,550
2019-07-22T03:25:55,42.805,6.029,CST-1368DR,8580,12002,15459,0.040,551
2019-07-22T03:28:57,42.805,6.029,CST-1368DR,8581,12004,15460,0.040,551
2019-07-22T03:31:59,42.805,6.029,CST-1368DR,8580,12002,15460,0.040,551
2019-07-22T03:35:01,42.805,6.029,CST-1368DR,8580,12003,15461,0.040,551
2019-07-22T03:38:03,42.805,6.029,CST-1368DR,8580,12004,15461,0.040,551
2019-07-22T03:41:04,42.805,6.029,CST-1368DR,8580,12003,15460,0.040,551
2019-07-22T03:44:06,42.805,6.029,CST-1368DR,8580,12002,15459,0.040,551
2019-07-22T03:47:08,42.805,6.029,CST-1368DR,8580,12004,15462,0.040,551
2019-07-22T03:50:10,42.805,6.029,CST-1368DR,8580,12003,15460,0.040,551
2019-07-22T03:53:11,42.805,6.029,CST-1368DR,8580,12000,15456,0.041,551
2019-07-22T03:56:13,42.805,6.029,CST-1368DR,8580,12004,15461,0.040,551
2019-07-22T03:59:15,42.805,6.029,CST-1368DR,8580,12003,15460,0.040,551
2019-07-22T04:02:17,42.805,6.029,CST-1368DR,8580,12002,15460,0.040,551
2019-07-22T04:05:19,42.805,6.029,CST-1368DR,8580,12001,15458,0.041,551
2019-07-22T04:08:20,42.805,6.029,CST-1368DR,8580,12001,15458,0.041,551
2019-07-22T04:11:22,42.805,6.029,CST-1368DR,8580,12003,15460,0.040,551
2019-07-22T04:14:24,42.805,6.029,CST-1368DR,8580,12003,15461,0.040,551
2019-07-22T04:17:26,42.805,6.029,CST-1368DR,8580,12003,15460,0.040,551
2019-07-22T04:20:27,42.805,6.029,CST-1368DR,8580,12003,15460,0.040,551
2019-07-22T04:23:29,42.805,6.029,CST-1368DR,8580,12002,15459,0.040,551
2019-07-22T04:26:31,42.805,6.029,CST-1368DR,8580,12003,15460,0.040,551
2019-07-22T04:29:33,42.805,6.029,CST-1368DR,8580,12003,15460,0.040,551
2019-07-22T04:32:34,42.805,6.029,CST-1368DR,8580,12001,15457,0.041,551
2019-07-22T04:35:36,42.805,6.029,CST-1368DR,8580,12003,15461,0.040,551
2019-07-22T04:38:38,42.805,6.029,CST-1368DR,8580,12002,15459,0.040,551
2019-07-22T04:41:40,42.805,6.029,CST-1368DR,8580,12003,15460,0.040,551
2019-07-22T04:44:41,42.805,6.029,CST-1368DR,8580,12002,15459,0.040,551
2019-07-22T04:47:43,42.805,6.029,CST-1368DR,8580,12002,15460,0.040,551
2019-07-22T04:50:45,42.805,6.029,CST-1368DR,8580,11992,15446,0.044,551
2019-07-22T04:53:47,42.805,6.029,CST-1368DR,8580,12005,15463,0.039,551
2019-07-22T04:56:48,42.805,6.029,CST-1368DR,8580,12002,15460,0.040,551
2019-07-22T04:59:50,42.805,6.029,CST-1368DR,8580,12004,15461,0.040,551
2019-07-22T05:02:52,42.805,6.029,CST-1368DR,8580,12004,15461,0.040,551
2019-07-22T05:05:54,42.805,6.029,CST-1368DR,8580,12001,15457,0.041,551
2019-07-22T05:08:55,42.805,6.029,CST-1368DR,8579,12004,15463,0.039,550
2019-07-22T05:11:57,42.805,6.029,CST-1368DR,8580,12004,15461,0.040,550
2019-07-22T05:14:59,42.805,6.029,CST-1368DR,8579,12002,15461,0.040,551
2019-07-22T05:18:01,42.805,6.029,CST-1368DR,8579,12002,15461,0.040,550
2019-07-22T05:21:02,42.805,6.029,CST-1368DR,8579,12003,15462,0.040,550
2019-07-22T05:24:04,42.805,6.029,CST-1368DR,8579,12002,15460,0.040,551
2019-07-22T05:27:06,42.805,6.029,CST-1368DR,8579,12003,15462,0.040,551
2019-07-22T05:30:08,42.805,6.029,CST-1368DR,8579,12003,15461,0.040,551
2019-07-22T05:33:09,42.805,6.029,CST-1368DR,8579,12003,15462,0.040,551
2019-07-22T05:36:11,42.805,6.029,CST-1368DR,8579,12001,15460,0.040,551
2019-07-22T05:39:13,42.805,6.029,CST-1368DR,8579,12002,15460,0.040,551
2019-07-22T05:42:15,42.805,6.029,CST-1368DR,8579,12003,15462,0.040,551
2019-07-22T05:45:16,42.805,6.029,CST-1368DR,8579,12002,15461,0.040,551
2019-07-22T05:48:18,42.805,6.029,CST-1368DR,8579,12001,15460,0.040,551
2019-07-22T05:51:20,42.805,6.029,CST-1368DR,8579,11999,15457,0.041,550
2019-07-22T05:54:22,42.805,6.029,CST-1368DR,8579,12001,15460,0.040,551
2019-07-22T05:57:23,42.805,6.029,CST-1368DR,8579,12000,15458,0.041,551
2019-07-22T06:00:25,42.805,6.029,CST-1368DR,8579,12000,15459,0.040,551
2019-07-22T06:03:27,42.805,6.029,CST-1368DR,8579,12003,15461,0.040,551
2019-07-22T06:06:29,42.805,6.029,CST-1368DR,8579,12003,15462,0.040,550
2019-07-22T06:09:30,42.805,6.029,CST-1368DR,8579,12002,15461,0.040,551
2019-07-22T06:12:32,42.805,6.029,CST-1368DR,8579,12002,15461,0.040,551
2019-07-22T06:15:34,42.805,6.029,CST-1368DR,8579,12002,15461,0.040,551
2019-07-22T06:18:36,42.805,6.029,CST-1368DR,8579,12002,15461,0.040,551
2019-07-22T06:21:37,42.805,6.029,CST-1368DR,8579,12002,15461,0.040,551
2019-07-22T06:24:39,42.805,6.029,CST-1368DR,8579,12000,15458,0.041,551
2019-07-22T06:27:41,42.805,6.029,CST-1368DR,8579,11998,15456,0.041,551
2019-07-22T06:30:43,42.805,6.029,CST-1368DR,8579,12002,15461,0.040,551
2019-07-22T06:33:44,42.805,6.029,CST-1368DR,8579,12002,15460,0.040,551
2019-07-22T06:36:46,42.805,6.029,CST-1368DR,8579,12001,15460,0.040,551
2019-07-22T06:39:48,42.805,6.029,CST-1368DR,8579,12003,15462,0.040,551
2019-07-22T06:42:50,42.805,6.029,CST-1368DR,8579,12002,15461,0.040,551
2019-07-22T06:45:51,42.805,6.029,CST-1368DR,8579,12000,15459,0.040,551
2019-07-22T06:48:53,42.805,6.029,CST-1368DR,8579,12002,15461,0.040,551
2019-07-22T06:51:55,42.805,6.029,CST-1368DR,8579,11999,15457,0.041,551
2019-07-22T06:54:57,42.805,6.029,CST-1368DR,8579,12002,15461,0.040,551
2019-07-22T06:57:58,42.805,6.029,CST-1368DR,8579,12002,15461,0.040,551
2019-07-22T07:01:00,42.805,6.029,CST-1368DR,8579,12002,15460,0.040,551
2019-07-22T07:04:02,42.805,6.029,CST-1368DR,8579,12000,15458,0.041,551
2019-07-22T07:07:04,42.805,6.029,CST-1368DR,8579,12001,15460,0.040,550
2019-07-22T07:10:05,42.805,6.029,CST-1368DR,8579,11997,15454,0.042,551
2019-07-22T07:13:07,42.805,6.029,CST-1368DR,8579,12001,15460,0.040,550
2019-07-22T07:16:09,42.805,6.029,CST-1368DR,8579,12002,15460,0.040,551
2019-07-22T07:19:11,42.805,6.029,CST-1368DR,8579,12001,15460,0.040,551
2019-07-22T07:22:12,42.805,6.029,CST-1368DR,8579,12001,15460,0.040,551
2019-07-22T07:25:14,42.805,6.029,CST-1368DR,8579,11999,15457,0.041,551
2019-07-22T07:28:16,42.805,6.029,CST-1368DR,8578,12000,15460,0.040,550
2019-07-22T07:31:17,42.805,6.029,CST-1368DR,8578,12001,15461,0.040,551
2019-07-22T07:34:19,42.805,6.029,CST-1368DR,8578,12001,15461,0.040,551
2019-07-22T07:37:21,42.805,6.029,CST-1368DR,8578,12001,15461,0.040,551
2019-07-22T07:40:23,42.805,6.029,CST-1368DR,8578,12001,15461,0.040,551
2019-07-22T07:43:25,42.805,6.029,CST-1368DR,8578,12001,15461,0.040,551
2019-07-22T07:46:26,42.805,6.029,CST-1368DR,8578,12002,15462,0.040,551
2019-07-22T07:49:28,42.805,6.029,CST-1368DR,8578,12000,15460,0.040,551
2019-07-22T07:52:30,42.805,6.029,CST-1368DR,8578,12000,15460,0.040,551
2019-07-22T07:55:31,42.805,6.029,CST-1368DR,8578,12000,15460,0.040,551
2019-07-22T07:58:33,42.805,6.029,CST-1368DR,8578,11998,15457,0.041,551
2019-07-22T08:01:35,42.805,6.029,CST-1368DR,8578,11999,15458,0.041,551
2019-07-22T08:04:37,42.805,6.029,CST-1368DR,8578,11999,15459,0.040,551
2019-07-22T08:07:39,42.805,6.029,CST-1368DR,8578,11997,15456,0.041,551
2019-07-22T08:10:40,42.805,6.029,CST-1368DR,8578,12000,15460,0.040,551
2019-07-22T08:13:42,42.805,6.029,CST-1368DR,8578,11999,15459,0.040,551
2019-07-22T08:16:44,42.805,6.029,CST-1368DR,8578,12002,15462,0.040,551
2019-07-22T08:19:46,42.805,6.029,CST-1368DR,8578,12002,15463,0.039,551
2019-07-22T08:22:47,42.805,6.029,CST-1368DR,8578,11999,15459,0.040,551
2019-07-22T08:25:49,42.805,6.029,CST-1368DR,8578,11986,15441,0.045,551
2019-07-22T08:28:51,42.805,6.029,CST-1368DR,8578,12001,15461,0.040,550
2019-07-22T08:31:53,42.805,6.029,CST-1368DR,8578,12002,15463,0.039,551
2019-07-22T08:34:55,42.805,6.029,CST-1368DR,8578,12001,15461,0.040,551
2019-07-22T08:37:56,42.805,6.029,CST-1368DR,8578,11999,15458,0.041,550
2019-07-22T08:40:58,42.805,6.029,CST-1368DR,8578,12000,15460,0.040,551
2019-07-22T08:44:00,42.805,6.029,CST-1368DR,8578,12001,15461,0.040,551
2019-07-22T08:47:02,42.805,6.029,CST-1368DR,8578,12000,15460,0.040,551
2019-07-22T08:50:03,42.805,6.029,CST-1368DR,8578,11998,15457,0.041,551
2019-07-22T08:53:05,42.805,6.029,CST-1368DR,8578,12000,15459,0.040,551
2019-07-22T08:56:07,42.805,6.029,CST-1368DR,8578,11998,15457,0.041,551
2019-07-22T08:59:08,42.805,6.029,CST-1368DR,8578,11999,15458,0.041,551
2019-07-22T09:02:10,42.805,6.029,CST-1368DR,8578,12000,15460,0.040,551
2019-07-22T09:05:12,42.805,6.029,CST-1368DR,8578,12001,15461,0.040,551
2019-07-22T09:08:14,42.805,6.029,CST-1368DR,8578,12001,15461,0.040,551
2019-07-22T09:11:16,42.805,6.029,CST-1368DR,8578,12000,15459,0.040,551
2019-07-22T09:14:17,42.805,6.029,CST-1368DR,8578,12001,15461,0.040,551
2019-07-22T09:17:19,42.805,6.029,CST-1368DR,8578,12000,15460,0.040,551
2019-07-22T09:20:21,42.805,6.029,CST-1368DR,8578,12000,15460,0.040,551
2019-07-22T09:23:22,42.805,6.029,CST-1368DR,8578,12000,15460,0.040,551
2019-07-22T09:26:24,42.805,6.029,CST-1368DR,8578,12000,15460,0.040,551
2019-07-22T09:29:26,42.805,6.029,CST-1368DR,8578,12001,15462,0.040,551
2019-07-22T09:32:28,42.805,6.029,CST-1368DR,8577,12000,15462,0.040,551
2019-07-22T09:35:29,42.805,6.029,CST-1368DR,8578,12000,15460,0.040,550
2019-07-22T09:38:31,42.805,6.029,CST-1368DR,8578,12000,15460,0.040,551
2019-07-22T09:41:33,42.805,6.029,CST-1368DR,8577,12000,15462,0.040,551
2019-07-22T09:44:34,42.805,6.029,CST-1368DR,8577,11999,15461,0.040,551
2019-07-22T09:47:36,42.805,6.029,CST-1368DR,8577,12000,15462,0.040,551
2019-07-22T09:50:38,42.805,6.029,CST-1368DR,8577,12000,15462,0.040,549
2019-07-22T09:53:40,42.805,6.029,CST-1368DR,8577,11988,15446,0.044,550
2019-07-22T09:56:41,42.805,6.029,CST-1368DR,8577,11993,15453,0.042,551
2019-07-22T09:59:43,42.805,6.029,CST-1368DR,8577,12001,15463,0.039,551
2019-07-22T10:02:45,42.805,6.029,CST-1368DR,8577,12000,15462,0.040,551
2019-07-22T10:05:47,42.805,6.029,CST-1368DR,8577,12000,15461,0.040,551
2019-07-22T10:08:48,42.805,6.029,CST-1368DR,8577,11999,15460,0.040,551
2019-07-22T10:11:50,42.805,6.029,CST-1368DR,8577,11999,15460,0.040,551
2019-07-22T10:14:51,42.805,6.029,CST-1368DR,8577,11999,15460,0.040,550
2019-07-22T10:17:53,42.805,6.029,CST-1368DR,8577,12000,15462,0.040,551
2019-07-22T10:20:55,42.805,6.029,CST-1368DR,8577,12000,15461,0.040,551
2019-07-22T10:23:56,42.805,6.029,CST-1368DR,8577,12000,15461,0.040,551
2019-07-22T10:26:58,42.805,6.029,CST-1368DR,8577,12000,15462,0.040,551
2019-07-22T10:30:00,42.805,6.029,CST-1368DR,8577,12000,15461,0.040,551
2019-07-22T10:33:01,42.805,6.029,CST-1368DR,8577,12000,15461,0.040,551
2019-07-22T10:36:03,42.805,6.029,CST-1368DR,8577,12000,15461,0.040,551
2019-07-22T10:39:05,42.805,6.029,CST-1368DR,8577,12000,15462,0.040,551
2019-07-22T10:42:06,42.805,6.029,CST-1368DR,8577,12000,15461,0.040,551
2019-07-22T10:45:08,42.805,6.029,CST-1368DR,8577,12000,15462,0.040,551
2019-07-22T10:48:09,42.805,6.029,CST-1368DR,8577,12000,15461,0.040,551
2019-07-22T10:51:11,42.805,6.029,CST-1368DR,8577,12000,15462,0.040,551
2019-07-22T10:54:13,42.805,6.029,CST-1368DR,8577,12000,15461,0.040,550
2019-07-22T10:57:14,42.805,6.029,CST-1368DR,8577,11999,15461,0.040,551
2019-07-22T11:00:16,42.805,6.029,CST-1368DR,8577,11999,15461,0.040,551
2019-07-22T11:03:18,42.805,6.029,CST-1368DR,8577,11999,15460,0.040,551
2019-07-22T11:06:19,42.805,6.029,CST-1368DR,8577,12000,15461,0.040,551
2019-07-22T11:09:21,42.805,6.029,CST-1368DR,8577,12000,15461,0.040,551
2019-07-22T11:12:22,42.805,6.029,CST-1368DR,8577,11999,15460,0.040,550
2019-07-22T11:15:24,42.805,6.029,CST-1368DR,8577,11996,15457,0.041,551
2019-07-22T11:18:26,42.805,6.029,CST-1368DR,8576,11999,15461,0.040,551
2019-07-22T11:21:27,42.805,6.029,CST-1368DR,8576,11997,15459,0.040,551
2019-07-22T11:24:29,42.805,6.029,CST-1368DR,8576,12000,15463,0.039,551
2019-07-22T11:27:31,42.805,6.029,CST-1368DR,8576,11998,15460,0.040,551
2019-07-22T11:30:32,42.805,6.029,CST-1368DR,8576,11999,15461,0.040,551
2019-07-22T11:33:34,42.805,6.029,CST-1368DR,8576,11999,15462,0.040,551
2019-07-22T11:36:35,42.805,6.029,CST-1368DR,8576,12000,15463,0.039,551
2019-07-22T11:39:37,42.805,6.029,CST-1368DR,8576,11999,15461,0.040,551
2019-07-22T11:42:39,42.805,6.029,CST-1368DR,8576,11999,15462,0.040,551
2019-07-22T11:45:40,42.805,6.029,CST-1368DR,8576,11999,15462,0.040,550
2019-07-22T11:48:42,42.805,6.029,CST-1368DR,8576,11999,15461,0.040,551
2019-07-22T11:51:44,42.805,6.029,CST-1368DR,8576,11997,15459,0.040,551
2019-07-22T11:54:45,42.805,6.029,CST-1368DR,8576,12000,15463,0.039,551
2019-07-22T11:57:47,42.805,6.029,CST-1368DR,8576,12000,15463,0.039,551
2019-07-22T12:00:48,42.805,6.029,CST-1368DR,8576,11997,15459,0.040,551
2019-07-22T12:03:50,42.805,6.029,CST-1368DR,8576,11999,15462,0.040,550
2019-07-22T12:06:52,42.805,6.029,CST-1368DR,8576,11999,15461,0.040,550
2019-07-22T12:09:53,42.805,6.029,CST-1368DR,8576,11996,15457,0.041,551
2019-07-22T12:12:55,42.805,6.029,CST-1368DR,8576,11998,15461,0.040,550
2019-07-22T12:15:57,42.805,6.029,CST-1368DR,8576,11997,15460,0.040,551
2019-07-22T12:18:58,42.805,6.029,CST-1368DR,8576,11997,15460,0.040,551
2019-07-22T12:22:00,42.805,6.029,CST-1368DR,8576,11997,15459,0.040,551
2019-07-22T12:25:01,42.805,6.029,CST-1368DR,8576,11999,15461,0.040,550
2019-07-22T12:28:03,42.805,6.029,CST-1368DR,8576,11996,15458,0.041,551
2019-07-22T12:31:05,42.805,6.029,CST-1368DR,8576,11995,15456,0.041,551
2019-07-22T12:34:06,42.805,6.029,CST-1368DR,8576,11998,15461,0.040,551
2019-07-22T12:37:08,42.805,6.029,CST-1368DR,8576,11998,15460,0.040,551
2019-07-22T12:40:10,42.805,6.029,CST-1368DR,8576,11998,15461,0.040,550
2019-07-22T12:43:12,42.805,6.029,CST-1368DR,8576,11998,15461,0.040,551
2019-07-22T12:46:13,42.805,6.029,CST-1368DR,8576,11998,15461,0.040,551
2019-07-22T12:49:15,42.805,6.029,CST-1368DR,8576,11997,15459,0.040,551
2019-07-22T12:52:16,42.805,6.029,CST-1368DR,8576,11997,15459,0.040,551
2019-07-22T12:55:18,42.805,6.029,CST-1368DR,8576,11999,15461,0.040,551
2019-07-22T12:58:20,42.805,6.029,CST-1368DR,8576,11998,15461,0.040,551
2019-07-22T13:01:21,42.805,6.029,CST-1368DR,8576,11998,15460,0.040,551
2019-07-22T13:04:23,42.805,6.029,CST-1368DR,8576,11997,15459,0.040,551
2019-07-22T13:07:25,42.805,6.029,CST-1368DR,8576,11998,15461,0.040,551
2019-07-22T13:10:26,42.805,6.029,CST-1368DR,8576,11997,15459,0.040,551
2019-07-22T13:13:28,42.805,6.029,CST-1368DR,8576,11998,15460,0.040,551
2019-07-22T13:16:29,42.805,6.029,CST-1368DR,8576,11997,15460,0.040,551
2019-07-22T13:19:31,42.805,6.029,CST-1368DR,8576,11997,15459,0.040,551
2019-07-22T13:22:33,42.805,6.029,CST-1368DR,8576,11996,15457,0.041,550
2019-07-22T13:25:34,42.805,6.029,CST-1368DR,8575,11997,15460,0.040,551
2019-07-22T13:28:36,42.805,6.029,CST-1368DR,8576,11997,15460,0.040,551
2019-07-22T13:31:38,42.805,6.029,CST-1368DR,8576,11997,15460,0.040,551
2019-07-22T13:34:39,42.805,6.029,CST-1368DR,8576,11997,15459,0.040,551
2019-07-22T13:37:41,42.805,6.029,CST-1368DR,8575,11996,15460,0.040,551
2019-07-22T13:40:43,42.805,6.029,CST-1368DR,8575,11997,15460,0.040,551
2019-07-22T13:43:44,42.805,6.029,CST-1368DR,8575,11997,15461,0.040,551
2019-07-22T13:46:46,42.805,6.029,CST-1368DR,8575,11996,15459,0.040,551
2019-07-22T13:49:48,42.805,6.029,CST-1368DR,8575,11997,15461,0.040,551
2019-07-22T13:52:49,42.805,6.029,CST-1368DR,8575,11995,15458,0.041,551
2019-07-22T13:55:51,42.805,6.029,CST-1368DR,8575,11996,15460,0.040,551
2019-07-22T13:58:53,42.805,6.029,CST-1368DR,8575,11996,15460,0.040,551
2019-07-22T14:01:54,42.805,6.029,CST-1368DR,8575,11996,15459,0.040,551
2019-07-22T14:04:56,42.805,6.029,CST-1368DR,8575,11996,15459,0.040,551
2019-07-22T14:07:58,42.805,6.029,CST-1368DR,8575,11996,15460,0.040,551
2019-07-22T14:10:59,42.805,6.029,CST-1368DR,8575,11997,15461,0.040,551
2019-07-22T14:14:01,42.805,6.029,CST-1368DR,8575,11996,15459,0.040,550
2019-07-22T14:17:03,42.805,6.029,CST-1368DR,8575,11995,15458,0.041,551
2019-07-22T14:20:04,42.805,6.029,CST-1368DR,8575,11996,15460,0.040,551
2019-07-22T14:23:06,42.805,6.029,CST-1368DR,8575,11997,15461,0.040,551
2019-07-22T14:26:07,42.805,6.029,CST-1368DR,8575,11991,15453,0.042,551
2019-07-22T14:29:09,42.805,6.029,CST-1368DR,8575,11995,15458,0.041,551
2019-07-22T14:32:11,42.805,6.029,CST-1368DR,8575,11994,15457,0.041,551
2019-07-22T14:35:12,42.805,6.029,CST-1368DR,8575,11997,15461,0.040,551
2019-07-22T14:38:14,42.805,6.029,CST-1368DR,8575,11992,15454,0.042,551
2019-07-22T14:41:16,42.805,6.029,CST-1368DR,8575,11996,15459,0.040,551
2019-07-22T14:44:17,42.805,6.029,CST-1368DR,8575,11996,15459,0.040,551
2019-07-22T14:47:19,42.805,6.029,CST-1368DR,8575,11993,15455,0.041,551
2019-07-22T14:50:21,42.805,6.029,CST-1368DR,8575,11996,15459,0.040,551
2019-07-22T14:53:22,42.805,6.029,CST-1368DR,8575,11996,15459,0.040,551
2019-07-22T14:56:24,42.805,6.029,CST-1368DR,8575,11996,15460,0.040,551
2019-07-22T14:59:26,42.805,6.029,CST-1368DR,8575,11997,15460,0.040,551
2019-07-22T15:02:27,42.805,6.029,CST-1368DR,8575,11995,15458,0.041,551
2019-07-22T15:05:29,42.805,6.029,CST-1368DR,8575,11996,15460,0.040,551
2019-07-22T15:08:30,42.805,6.029,CST-1368DR,8575,11996,15459,0.040,551
2019-07-22T15:11:32,42.805,6.029,CST-1368DR,8575,11996,15460,0.040,551
2019-07-22T15:14:34,42.805,6.029,CST-1368DR,8575,11995,15458,0.041,551
2019-07-22T15:17:35,42.805,6.029,CST-1368DR,8575,11996,15459,0.040,551
2019-07-22T15:20:37,42.805,6.029,CST-1368DR,8574,11996,15461,0.040,551
2019-07-22T15:23:39,42.805,6.029,CST-1368DR,8574,11995,15460,0.040,551
2019-07-22T15:26:40,42.805,6.029,CST-1368DR,8574,11996,15462,0.040,551
2019-07-22T15:29:42,42.805,6.029,CST-1368DR,8574,11994,15459,0.040,550
2019-07-22T15:32:44,42.805,6.029,CST-1368DR,8574,11995,15460,0.040,551
2019-07-22T15:35:45,42.805,6.029,CST-1368DR,8574,11995,15460,0.040,550
2019-07-22T15:38:47,42.805,6.029,CST-1368DR,8574,11994,15459,0.040,551
2019-07-22T15:41:49,42.805,6.029,CST-1368DR,8574,11994,15459,0.040,551
2019-07-22T15:44:50,42.805,6.029,CST-1368DR,8574,11994,15459,0.040,551
2019-07-22T15:47:52,42.805,6.029,CST-1368DR,8574,11995,15460,0.040,551
2019-07-22T15:50:54,42.805,6.029,CST-1368DR,8574,11995,15460,0.040,551
2019-07-22T15:53:55,42.805,6.029,CST-1368DR,8574,11994,15459,0.040,551
2019-07-22T15:56:57,42.805,6.029,CST-1368DR,8574,11996,15462,0.040,551
2019-07-22T15:59:58,42.805,6.029,CST-1368DR,8574,11993,15458,0.041,551
2019-07-22T16:03:00,42.805,6.029,CST-1368DR,8574,11995,15459,0.040,551
2019-07-22T16:06:02,42.805,6.029,CST-1368DR,8574,11994,15458,0.041,551
2019-07-22T16:09:03,42.805,6.029,CST-1368DR,8574,11993,15457,0.041,551
2019-07-22T16:12:05,42.805,6.029,CST-1368DR,8574,11995,15460,0.040,551
2019-07-22T16:15:07,42.805,6.029,CST-1368DR,8574,11994,15459,0.040,550
2019-07-22T16:18:08,42.805,6.029,CST-1368DR,8574,11995,15460,0.040,551
2019-07-22T16:21:10,42.805,6.029,CST-1368DR,8574,11994,15459,0.040,551
2019-07-22T16:24:12,42.805,6.029,CST-1368DR,8574,11995,15459,0.040,551
2019-07-22T16:27:14,42.805,6.029,CST-1368DR,8574,11994,15458,0.041,551
2019-07-22T16:30:15,42.805,6.029,CST-1368DR,8574,11993,15458,0.041,551
2019-07-22T16:33:17,42.805,6.029,CST-1368DR,8574,11994,15458,0.041,551
2019-07-22T16:36:18,42.805,6.029,CST-1368DR,8574,11995,15460,0.040,551